Regional Weather Roundup
Issued by NWS

Home | Current Version | Previous Version | Text Only | Print | Product List | Glossary Off
Versions: 1 2 3 4 5 6 7 8 9 10 11 12 13 14 15 16 17 18 19 20 21 22 23 24 25 26 27 28 29 30 31 32 33 34 35 36 37 38 39 40 41 42 43 44 45 46 47 48 49 50

000
ASUS43 KDMX 271507
RWRIA

WEATHER ROUNDUP FOR IOWA
NATIONAL WEATHER SERVICE DES MOINES IA
1000 AM CDT THU AUG 27 2015

NOTE: "FAIR" INDICATES FEW OR NO CLOUDS BELOW 12,000 FEET WITH NO
SIGNIFICANT WEATHER AND/OR OBSTRUCTIONS TO VISIBILITY.

* - THESE STATIONS ARE NOT NWS STATIONS...THUS NOT UNDER NWS
QUALITY CONTROL.  THEY ALSO DO NOT REPORT WEATHER SUCH
AS PRECIPITATION OR FOG.

IAZ001>003-012>014-020>022-031>034-043>046-271600-
   NORTHWEST IOWA

CITY           SKY/WX    TMP DP  RH WIND       PRES   REMARKS
CARROLL *      CLOUDY    61  59  94 CALM      30.16R
CHEROKEE *     CLOUDY    63  63 100 SE13G18   30.01F
DENISON *      PTSUNNY   61  57  88 SE13G24   30.02F
LE MARS *      SUNNY     66  63  88 S14G22    29.99F
ORANGE CITY *  SUNNY     66  64  94 S9        29.98F
SHELDON *      SUNNY     63  61  94 E16G23    29.89F
SIOUX CITY     CLOUDY    64  59  83 SE16G25   30.04R
SPENCER        TSTM      61  55  81 SE12      30.07F
STORM LAKE *   LGT RAIN  61  61 100 NE16G24   30.07F
$$

IAZ055>058-069>071-079>083-090>094-271600-
   SOUTHWEST IOWA

CITY           SKY/WX    TMP DP  RH WIND       PRES   REMARKS
ATLANTIC *     MOSUNNY   63  55  77 SE7G15    30.06F
AUDUBON *      HVY RAIN  63  57  82 E7        30.14R
CLARINDA *     CLOUDY    63  57  82 NE9       30.14R
COUNCIL BLFS * SUNNY     64  59  82 VRB7G16   30.03R
CRESTON *      CLOUDY    64  57  77 S6        30.14R
HARLAN  *      CLOUDY    61  61 100 SE14G21   30.06F
LAMONI         PTSUNNY   66  58  75 S8        30.09F
RED OAK *      PTSUNNY   63  59  88 E13       30.03F
SHENANDOAH *   LGT RAIN  63  59  88 SE17G25   30.01F
$$

IAZ047>049-059>061-072>074-084-271600-
   CENTRAL IOWA

CITY           SKY/WX    TMP DP  RH WIND       PRES   REMARKS
AMES           PTSUNNY   62  58  86 SE7       30.13R
ANKENY *       SUNNY     68  57  68 VRB6      30.14R
CHARITON *     SUNNY     68  59  73 S8G15     30.11R
DES MOINES     CLOUDY    68  57  68 SE8       30.12R
GRINNELL*      CLOUDY    64  57  77 S7        30.15R
KNOXVILLE *    SUNNY     66  59  77 SE8       30.11R
MARSHALLTOWN   CLOUDY    63  59  87 S6        30.13R
PELLA *        PTSUNNY   68  61  77 SE7       30.13R
PERRY *        PTSUNNY   63  59  88 CALM      30.15R
$$

IAZ004>006-015-016-023>025-035-036-271600-
   NORTH CENTRAL IOWA

CITY           SKY/WX    TMP DP  RH WIND       PRES   REMARKS
ALGONA *       PTSUNNY   61  57  88 SW9       30.17R
CLARION *      SUNNY     63  57  82 S5        30.15R
ESTHERVILLE    CLOUDY    57  55  93 S13       30.09F
FORT DODGE *   CLOUDY    61  54  77 CALM      30.16R
MASON CITY     CLOUDY    64  57  78 S10       30.15R
FOREST CITY *  SUNNY     63  55  77 S3        30.16R
IOWA FALLS *     N/A     63  57  82 S7        30.16R
$$

IAZ007>011-017>019-026>030-037>042-050>054-066-271600-
   NORTHEAST IOWA

CITY           SKY/WX    TMP DP  RH WIND       PRES   REMARKS
CEDAR RAPIDS   PTSUNNY   65  60  84 SE9       30.14F
CHARLES CITY * SUNNY     64  59  82 S7        30.15R
CLINTON *      SUNNY     64  57  77 S9        30.21S
DECORAH *      SUNNY     64  57  77 S6        30.14F
DUBUQUE        SUNNY     63  57  81 S9        30.18R
MONTICELLO *   SUNNY     66  59  77 VRB7      30.16S
OELWEIN *      SUNNY     64  59  82 SE8       30.15F
WATERLOO       CLOUDY    67  56  67 S8        30.13S
$$

IAZ064-065-067-068-078-271600-
   EAST CENTRAL IOWA

CITY           SKY/WX    TMP DP  RH WIND       PRES   REMARKS
DAVENPORT      SUNNY     66  56  70 S9        30.18F
IOWA CITY      PTSUNNY   64  58  80 SE7       30.16F
MT. PLEASANT * PTSUNNY   68  55  64 SE10      30.15F
MUSCATINE *    SUNNY     66  57  72 SE7       30.16F
QUAD CITIES    SUNNY     66  57  72 S7        30.17F
$$

IAZ062-063-075>077-085>089-095>099-271600-
   SOUTHEAST IOWA

CITY           SKY/WX    TMP DP  RH WIND       PRES   REMARKS
BURLINGTON     MOSUNNY   65  58  78 SE8       30.16F
FAIRFIELD *    SUNNY     66  57  72 SE8       30.14F
FORT MADISON * SUNNY     64  57  77 SE7       30.17S
KEOKUK *       SUNNY     66  57  72 SE10      30.15F
OSKALOOSA *      N/A     66  59  77 SE7       30.13S
CENTERVILLE *  SUNNY     66  59  77 SE12      30.13F
OTTUMWA        CLOUDY    66  59  78 S9        30.12S
WASHINGTON *     N/A    N/A N/A N/A MISG        N/A
$$

ABBREVIATIONS USED IN REMARKS
   TC - TEMPERATURES IN CELSIUS
  WCI - WIND CHILL INDEX
   HX - HEAT INDEX
  VSB - VISIBILITY
$$




USA.gov is the U.S. government's official web portal to all federal, state and local government web resources and services.